Omaha Offutt, NE

7:11 AM CDT on September 22, 2017 (GMT -0500)
Offutt Air Force Base

Weather History for KOFF - March, 2013

Change the Weather History Date:

Sunday, March 24, 2013

  Actual Average Record
Temperature  
Mean Temperature 26 °F -  
Max Temperature 29 °F 52 °F 78 °F (2012)
Min Temperature 24 °F 32 °F 14 °F (2008)
Degree Days  
Heating Degree Days 38    
Moisture  
Dew Point 22 °F    
Average Humidity 82    
Maximum Humidity 100    
Minimum Humidity 64    
Precipitation  
Precipitation 0.01 in - - ()
Snow  
Snow 0.00 in - - ()
Snow Depth 1.00 in    
Sea Level Pressure  
Sea Level Pressure 30.08 in    
Wind  
Wind Speed 13 mph (NNW)    
Max Wind Speed 24 mph    
Max Gust Speed 31 mph    
Visibility 9 miles    
Events Snow    
Averages and records for this station are not official NWS values.
T = Trace of Precipitation, MM = Missing Value Source: NWS Daily Summary

Daily Weather History Graph

Daily Weather History Graph

Search for Another Location

Airport or City:

Trip Planner

Search our weather history database for the weather conditions in past years. The results will help you decide how hot, cold, wet, or windy it might be!

Date:

Astronomy

Mar. 24, 2013 Rise Set
Actual Time 7:19 AM CDT 7:40 PM CDT
Civil Twilight 6:52 AM CDT 8:07 PM CDT
Nautical Twilight 6:19 AM CDT 8:40 PM CDT
Astronomical Twilight 5:46 AM CDT 9:13 PM CDT
Moon 5:08 PM CDT (3/24) 5:32 AM CDT (3/24)
Length of Visible Light 13h 15m
Length of Day
12h 20m
Waxing Gibbous, 92% of the Moon is Illuminated
Mar 24
Waxing Gibbous
Mar 27
Full
Apr 2
Last Quarter
Apr 10
New
Apr 18
First Quarter

Hourly Weather History & Observations

Time (CDT) Temp. Windchill Dew Point Humidity Pressure Visibility Wind Dir Wind Speed Gust Speed Precip Events Conditions
12:49 AM 28.4 °F 19.1 °F 26.6 °F 93% 30.09 in 10.0 mi North 10.4 mph - N/A Snow Light Snow
12:55 AM 29.1 °F 19.4 °F 27.5 °F 94% 30.09 in 10.0 mi North 11.5 mph - 0.00 in Snow Light Snow
12:58 AM 29.1 °F 20.0 °F 27.5 °F 94% 30.17 in 10.0 mi North 10.4 mph - 0.00 in Snow Light Snow
1:19 AM 28.4 °F 18.0 °F 28.4 °F 100% 30.09 in 7.0 mi North 12.7 mph - N/A Snow Light Snow
1:23 AM 28.4 °F 19.1 °F 28.4 °F 100% 30.09 in 3.0 mi North 10.4 mph - N/A Snow Light Snow
1:55 AM 28.6 °F 19.3 °F 28.4 °F 99% 30.09 in 4.0 mi North 10.4 mph - 0.00 in Snow Light Snow
2:02 AM 28.4 °F 19.1 °F 28.4 °F 100% 30.09 in 5.0 mi North 10.4 mph - N/A Snow Light Snow
2:55 AM 28.6 °F 18.2 °F 28.4 °F 99% 30.08 in 6.0 mi North 12.7 mph 16.1 mph 0.00 in Snow Light Snow
3:07 AM 28.4 °F 19.7 °F 28.4 °F 100% 30.09 in 7.0 mi NNW 9.2 mph - N/A Snow Light Snow
3:55 AM 28.2 °F 16.3 °F 26.2 °F 92% 30.07 in 10.0 mi North 16.1 mph 23.0 mph 0.00 in Snow Light Snow
4:00 AM 28.4 °F 19.7 °F 26.6 °F 93% 30.07 in 10.0 mi North 9.2 mph 23.0 mph N/A   Overcast
4:03 AM 28.4 °F 16.6 °F 26.6 °F 93% 30.07 in 10.0 mi North 16.1 mph 23.0 mph N/A Snow Light Snow
4:46 AM 26.6 °F 15.7 °F 23.0 °F 86% 30.07 in 5.0 mi North 12.7 mph - N/A Snow Light Snow
4:55 AM 26.8 °F 17.7 °F 23.4 °F 87% 30.07 in 5.0 mi North 9.2 mph - 0.00 in Snow Light Snow
5:55 AM 26.1 °F 16.8 °F 20.3 °F 79% 30.08 in 10.0 mi NNW 9.2 mph 21.9 mph 0.00 in   Mostly Cloudy
6:46 AM 24.8 °F 14.6 °F 21.2 °F 86% 30.07 in 10.0 mi NNW 10.4 mph 17.3 mph N/A Snow Light Snow
6:55 AM 25.7 °F 15.1 °F 22.3 °F 87% 30.07 in 10.0 mi NNW 11.5 mph - 0.00 in Snow Light Snow
7:23 AM 26.6 °F 17.5 °F 23.0 °F 86% 30.07 in 2.5 mi NNW 9.2 mph 16.1 mph N/A Snow Light Snow
7:31 AM 26.6 °F 20.0 °F 23.0 °F 86% 30.07 in 3.0 mi NNW 5.8 mph 16.1 mph N/A Snow Light Snow
7:40 AM 26.6 °F 19.1 °F 24.8 °F 93% 30.07 in 2.5 mi NNW 6.9 mph 17.3 mph N/A Snow Light Snow
7:55 AM 26.1 °F 17.6 °F 24.1 °F 92% 30.08 in 5.0 mi NNW 8.1 mph - 0.00 in Snow Light Snow
8:01 AM 26.6 °F 19.1 °F 23.0 °F 86% 30.08 in 8.0 mi Variable 6.9 mph - N/A Snow Light Snow
8:37 AM 26.6 °F 16.2 °F 23.0 °F 86% 30.07 in 10.0 mi NNW 11.5 mph 18.4 mph N/A   Overcast
8:55 AM 27.1 °F 17.5 °F 23.2 °F 85% 30.07 in 10.0 mi NNW 10.4 mph 17.3 mph 0.00 in   Overcast
9:04 AM 26.6 °F 16.8 °F 23.0 °F 86% 30.07 in 10.0 mi NNW 10.4 mph 17.3 mph N/A   Overcast
9:55 AM 27.3 °F 16.1 °F 23.5 °F 86% 30.08 in 8.0 mi NNW 13.8 mph 20.7 mph 0.00 in Snow Light Snow
10:55 AM 27.5 °F 17.4 °F 23.4 °F 84% 30.08 in 8.0 mi NNW 11.5 mph 18.4 mph 0.00 in Snow Light Snow
11:30 AM 26.6 °F 17.5 °F 23.0 °F 86% 30.07 in 10.0 mi NNW 9.2 mph 16.1 mph N/A Snow Light Snow
12:31 PM 26.6 °F 16.2 °F 23.0 °F 86% 30.08 in 10.0 mi NW 11.5 mph - N/A   Overcast
12:55 PM 27.5 °F 16.3 °F 21.4 °F 78% 30.08 in 10.0 mi NNW 13.8 mph - 0.00 in   Overcast
1:55 PM 28.2 °F 15.5 °F 20.5 °F 73% 30.07 in 10.0 mi NW 18.4 mph - N/A   Overcast
2:55 PM 29.1 °F 16.7 °F 20.1 °F 69% 30.06 in 10.0 mi NW 18.4 mph 24.2 mph N/A   Mostly Cloudy
3:39 PM 28.4 °F 15.8 °F 21.2 °F 74% 30.06 in 10.0 mi NW 18.4 mph - N/A   Mostly Cloudy
3:44 PM 28.4 °F 15.1 °F 21.2 °F 74% 30.06 in 10.0 mi NW 20.7 mph 26.5 mph N/A   Mostly Cloudy
3:55 PM 28.4 °F 15.1 °F 20.8 °F 73% 30.06 in 10.0 mi NW 20.7 mph 27.6 mph 0.00 in   Mostly Cloudy
3:57 PM 28.4 °F 15.4 °F 21.2 °F 74% 30.05 in 10.0 mi NW 19.6 mph 28.8 mph N/A   Mostly Cloudy
4:45 PM 28.4 °F 15.4 °F 19.4 °F 69% 30.06 in 10.0 mi NW 19.6 mph 25.3 mph N/A   Mostly Cloudy
4:46 PM 28.4 °F 16.2 °F 19.4 °F 69% 30.06 in 10.0 mi NW 17.3 mph 25.3 mph N/A   Mostly Cloudy
4:55 PM 28.6 °F 15.3 °F 19.6 °F 69% 30.06 in 10.0 mi NW 20.7 mph 28.8 mph 0.00 in   Mostly Cloudy
5:30 PM 28.4 °F 14.7 °F 19.4 °F 69% 30.07 in 10.0 mi NW 21.9 mph 26.5 mph N/A   Overcast
5:55 PM 28.2 °F 13.9 °F 18.3 °F 66% 30.07 in 10.0 mi NW 24.2 mph 31.1 mph 0.00 in   Overcast
5:56 PM 28.4 °F 14.7 °F 17.6 °F 64% 30.07 in 10.0 mi NW 21.9 mph 31.1 mph N/A   Overcast
5:58 PM 28.4 °F 15.4 °F 17.6 °F 64% 30.07 in 10.0 mi NW 19.6 mph 31.1 mph N/A   Overcast
5:59 PM 28.4 °F 15.4 °F 17.6 °F 64% 30.07 in 10.0 mi NW 19.6 mph 31.1 mph N/A   Overcast
6:00 PM 28.4 °F 15.8 °F 19.4 °F 69% 30.08 in 10.0 mi NW 18.4 mph 31.1 mph N/A   Overcast
6:01 PM 28.4 °F 15.4 °F 19.4 °F 69% 30.08 in 10.0 mi NW 19.6 mph 31.1 mph N/A   Overcast
6:02 PM 28.4 °F 15.8 °F 19.4 °F 69% 30.08 in 10.0 mi NW 18.4 mph 25.3 mph N/A   Overcast
6:03 PM 28.4 °F 15.4 °F 19.4 °F 69% 30.08 in 10.0 mi NW 19.6 mph 25.3 mph N/A   Overcast
6:10 PM 28.4 °F 15.1 °F 19.4 °F 69% 30.08 in 10.0 mi NW 20.7 mph 25.3 mph N/A   Overcast
6:14 PM 28.4 °F 16.6 °F 19.4 °F 69% 30.08 in 10.0 mi NW 16.1 mph - N/A   Overcast
6:31 PM 28.4 °F 16.2 °F 19.4 °F 69% 30.09 in 10.0 mi NW 17.3 mph 27.6 mph N/A   Overcast
6:43 PM 28.4 °F 16.2 °F 19.4 °F 69% 30.09 in 10.0 mi NW 17.3 mph 24.2 mph N/A   Mostly Cloudy
6:55 PM 28.0 °F 16.1 °F 19.2 °F 70% 30.09 in 10.0 mi NW 16.1 mph 21.9 mph N/A   Scattered Clouds
7:55 PM 27.0 °F 14.7 °F 21.7 °F 81% 30.10 in 8.0 mi NW 16.1 mph 23.0 mph 0.00 in Snow Light Snow
8:09 PM 26.6 °F 13.4 °F 21.2 °F 80% 30.10 in 10.0 mi NW 18.4 mph - N/A Snow Light Snow
8:55 PM 26.2 °F 15.8 °F 21.7 °F 83% 30.11 in 10.0 mi NW 11.5 mph - 0.00 in Snow Light Snow
9:14 PM 26.6 °F 15.7 °F 21.2 °F 80% 30.11 in 10.0 mi NW 12.7 mph - N/A Snow Light Snow
9:55 PM 26.2 °F 15.8 °F 22.1 °F 84% 30.12 in 10.0 mi NW 11.5 mph - 0.00 in Snow Light Snow
10:00 PM 26.6 °F 15.7 °F 23.0 °F 86% 30.12 in 10.0 mi NW 12.7 mph - N/A Snow Light Snow
10:29 PM 26.6 °F 14.3 °F 23.0 °F 86% 30.12 in 8.0 mi NW 16.1 mph - N/A Snow Light Snow
10:55 PM 26.1 °F 13.6 °F 23.5 °F 90% 30.11 in 9.0 mi NW 16.1 mph - 0.00 in Snow Light Snow
11:09 PM 26.6 °F 14.7 °F 23.0 °F 86% 30.11 in 10.0 mi NW 15.0 mph - N/A   Scattered Clouds
11:14 PM 26.6 °F 14.7 °F 23.0 °F 86% 30.11 in 10.0 mi NW 15.0 mph - N/A Snow Light Snow
11:55 PM 26.2 °F 14.2 °F 24.4 °F 93% 30.11 in 10.0 mi NW 15.0 mph - 0.00 in Snow Light Snow